Simultaneous Nadir Overpasses (SNOs) Predictions

Prediction of SNOs between METOP-A and TERRA Satellite Orbit:

Table of predicted SNOs for the next 14.0 days since TLE Epoch: 2/2/2013
Index Date (METOP-A) Time (METOP-A) Lat,Lon (METOP-A) SZA (METOP-A ) Date (TERRA) Time (TERRA) Lat,Lon (TERRA) SZA (TERRA ) Distance(km) Time Diff (sec)
1 02/03/2013 11:24:18 -81.35,-123.19 79.90 02/03/2013 11:24:59 -81.35,-123.16 79.88 0.50 41
2 02/03/2013 12:14:58 81.35, 44.47 100.13 02/03/2013 12:14:25 81.36, 44.59 100.13 2.06 33
3 02/06/2013 06:58:37 -81.35, -56.99 80.78 02/06/2013 06:59:12 -81.35, -56.82 80.75 2.95 35
4 02/06/2013 07:49:16 81.36, 111.01 99.29 02/06/2013 07:48:38 81.35, 110.91 99.26 1.84 38
5 02/09/2013 02:32:55 -81.35, 9.76 81.63 02/09/2013 02:33:25 -81.36, 9.83 81.61 1.26 30
6 02/0
